Date String (YYYY-MM-DD hh:mm:ss) UTC,Instrument flags,Ambient pressure (hPa),Sample flow (lpm),Bypass flow (lpm),Sample temperature (°C),Ambient temperature (°C),ASC tube jacket temperature (°C),LED temperature (°C),Box temperature (°C),Sample RH (%),Span deviation,Mass concentration (μg/m³),Mass concentration (μg/m³),Mass concentration (μg/m³)
DateTimeUTC,F1_M11,P_M11,Q1_M11,Q2_M11,T1_M11,T2_M11,T3_M11,T4_M11,T5_M11,U1_M11,ZSPAN_M11,X0_M11,X2_M11,X1_M11
2022-05-31 22:00:00,,0828.8,4.99,0.00,27.6,26.6,00.0,36.5,29.5,23.6,0000.0,0004.81,0003.10,0002.52
2022-05-31 22:01:00,,0828.8,5.00,0.00,27.6,26.6,00.0,36.5,29.5,23.7,0000.0,0004.55,0003.12,0002.56
2022-05-31 22:02:00,,0828.9,5.00,0.00,27.6,26.6,00.0,36.5,29.5,23.7,0000.0,0004.46,0003.13,0002.57
2022-05-31 22:03:00,,0828.9,4.99,0.00,27.6,26.6,00.0,36.5,29.5,23.6,0000.0,0004.36,0003.13,0002.59
2022-05-31 22:04:00,,0829.0,5.00,0.00,27.6,26.6,00.0,36.5,29.5,23.7,0000.0,0004.22,0003.11,0002.60
2022-05-31 22:05:00,,0828.9,5.01,0.00,27.6,26.6,00.0,36.5,29.5,23.8,0000.0,0004.29,0003.14,0002.61
2022-05-31 22:06:00,,0829.0,5.01,0.00,27.6,26.6,00.0,36.5,29.5,23.8,0000.0,0004.23,0003.14,0002.63
2022-05-31 22:07:00,,0829.0,5.00,0.00,27.6,26.6,00.0,36.5,29.5,23.8,0000.0,0004.21,0003.14,0002.66
2022-05-31 22:08:00,,0829.0,4.99,0.00,27.6,26.6,00.0,36.5,29.5,23.7,0000.0,0004.35,0003.15,0002.67
2022-05-31 22:09:00,,0829.0,5.00,0.00,27.6,26.6,00.0,36.5,29.5,23.7,0000.0,0004.48,0003.18,0002.68
2022-05-31 22:10:00,,0829.0,4.99,0.00,27.6,26.7,00.0,36.5,29.5,23.7,0000.0,0004.50,0003.21,0002.70
2022-05-31 22:11:00,,0829.0,5.01,0.00,27.6,26.7,00.0,36.5,29.5,23.7,0000.0,0004.50,0003.22,0002.71
2022-05-31 22:12:00,,0829.0,4.99,0.00,27.6,26.7,00.0,36.5,29.5,23.5,0000.0,0004.54,0003.23,0002.72
2022-05-31 22:13:00,,0828.9,4.99,0.00,27.6,26.7,00.0,36.5,29.5,23.5,0000.0,0004.50,0003.22,0002.72
2022-05-31 22:14:00,,0829.0,5.01,0.00,27.6,26.7,00.0,36.5,29.5,23.6,0000.0,0004.61,0003.25,0002.74
2022-05-31 22:15:00,,0829.0,5.00,0.00,27.6,26.7,00.0,36.5,29.6,23.7,0000.0,0004.65,0003.27,0002.76
2022-05-31 22:16:00,,0828.9,4.99,0.00,27.6,26.7,00.0,36.5,29.6,24.5,0000.0,0004.58,0003.26,0002.78
2022-05-31 22:17:00,,0829.0,5.01,0.00,27.6,26.7,00.0,36.5,29.6,24.7,0000.0,0004.64,0003.27,0002.79
2022-05-31 22:18:00,,0828.9,4.99,0.00,27.6,26.7,00.0,36.5,29.6,23.8,0000.0,0004.73,0003.29,0002.79
2022-05-31 22:19:00,,0828.9,4.98,0.00,27.7,26.7,00.0,36.5,29.6,23.7,0000.0,0004.76,0003.30,0002.80
2022-05-31 22:20:00,,0829.0,5.01,0.00,27.7,26.7,00.0,36.5,29.6,24.0,0000.0,0004.82,0003.31,0002.82
2022-05-31 22:21:00,,0829.0,5.00,0.00,27.7,26.7,00.0,36.6,29.6,24.3,0000.0,0005.01,0003.29,0002.81
2022-05-31 22:22:00,,0829.1,5.00,0.00,27.7,26.7,00.0,36.6,29.6,24.3,0000.0,0005.06,0003.30,0002.83
2022-05-31 22:23:00,,0829.1,5.01,0.00,27.7,26.7,00.0,36.6,29.6,24.0,0000.0,0005.12,0003.31,0002.85
2022-05-31 22:24:00,,0829.1,5.00,0.00,27.7,26.7,00.0,36.6,29.6,24.2,0000.0,0005.19,0003.33,0002.87
2022-05-31 22:25:00,,0829.1,5.00,0.00,27.7,26.7,00.0,36.6,29.6,24.1,0000.0,0005.21,0003.32,0002.87
2022-05-31 22:26:00,,0829.1,5.01,0.00,27.7,26.7,00.0,36.6,29.6,23.8,0000.0,0005.39,0003.33,0002.87
2022-05-31 22:27:00,,0829.1,5.00,0.00,27.7,26.7,00.0,36.6,29.6,23.8,0000.0,0005.47,0003.34,0002.87
2022-05-31 22:28:00,,0829.1,5.01,0.00,27.7,26.7,00.0,36.6,29.6,23.9,0000.0,0005.50,0003.37,0002.90
2022-05-31 22:29:00,,0829.2,5.00,0.00,27.7,26.7,00.0,36.6,29.6,24.1,0000.0,0005.53,0003.38,0002.91
2022-05-31 22:30:00,,0829.2,4.99,0.00,27.7,26.7,00.0,36.6,29.6,24.0,0000.0,0005.37,0003.35,0002.91
2022-05-31 22:31:00,,0829.2,5.00,0.00,27.7,26.7,00.0,36.6,29.6,24.1,0000.0,0005.35,0003.35,0002.90
2022-05-31 22:32:00,,0829.2,5.00,0.00,27.7,26.7,00.0,36.6,29.6,23.9,0000.0,0005.39,0003.40,0002.91
2022-05-31 22:33:00,,0829.2,4.99,0.00,27.7,26.7,00.0,36.6,29.6,24.0,0000.0,0005.66,0003.43,0002.91
2022-05-31 22:34:00,,0829.2,5.00,0.00,27.7,26.7,00.0,36.6,29.6,23.8,0000.0,0005.73,0003.43,0002.90
2022-05-31 22:35:00,,0829.2,5.00,0.00,27.7,26.8,00.0,36.6,29.6,23.8,0000.0,0005.95,0003.45,0002.90
2022-05-31 22:36:00,,0829.3,5.00,0.00,27.7,26.8,00.0,36.6,29.6,23.5,0000.0,0005.92,0003.46,0002.90
2022-05-31 22:37:00,,0829.2,5.00,0.00,27.7,26.8,00.0,36.6,29.6,23.4,0000.0,0005.85,0003.46,0002.89
2022-05-31 22:38:00,,0829.2,4.99,0.00,27.7,26.8,00.0,36.6,29.7,22.9,0000.0,0005.78,0003.45,0002.87
2022-05-31 22:39:00,,0829.2,5.00,0.00,27.7,26.8,00.0,36.6,29.7,22.5,0000.0,0005.76,0003.42,0002.84
2022-05-31 22:40:00,,0829.2,5.00,0.00,27.7,26.8,00.0,36.6,29.7,22.6,0000.0,0005.79,0003.42,0002.83
2022-05-31 22:41:00,,0829.2,5.01,0.00,27.8,26.8,00.0,36.6,29.7,22.9,0000.0,0005.82,0003.43,0002.83
2022-05-31 22:42:00,,0829.2,5.00,0.00,27.8,26.8,00.0,36.7,29.7,23.1,0000.0,0005.85,0003.44,0002.83
2022-05-31 22:43:00,,0829.2,4.99,0.00,27.8,26.8,00.0,36.7,29.7,23.3,0000.0,0005.61,0003.40,0002.83
2022-05-31 22:44:00,,0829.2,5.01,0.00,27.8,26.8,00.0,36.7,29.7,23.1,0000.0,0005.22,0003.34,0002.80
2022-05-31 22:45:00,,0829.2,5.00,0.00,27.8,26.8,00.0,36.7,29.7,22.9,0000.0,0005.02,0003.31,0002.78
2022-05-31 22:46:00,,0829.2,4.99,0.00,27.8,26.8,00.0,36.7,29.7,22.5,0000.0,0004.86,0003.28,0002.76
2022-05-31 22:47:00,,0829.2,5.00,0.00,27.8,26.8,00.0,36.7,29.7,22.4,0000.0,0004.77,0003.23,0002.72
2022-05-31 22:48:00,,0829.2,5.01,0.00,27.8,26.8,00.0,36.7,29.7,22.0,0000.0,0004.58,0003.18,0002.68
2022-05-31 22:49:00,,0829.2,5.00,0.00,27.8,26.8,00.0,36.7,29.7,22.0,0000.0,0004.48,0003.15,0002.63
2022-05-31 22:50:00,,0829.2,5.00,0.00,27.8,26.8,00.0,36.7,29.7,22.3,0000.0,0004.32,0003.11,0002.59
2022-05-31 22:51:00,,0829.2,5.00,0.00,27.8,26.8,00.0,36.7,29.7,22.6,0000.0,0004.17,0003.02,0002.53
2022-05-31 22:52:00,,0829.2,5.00,0.00,27.8,26.8,00.0,36.7,29.7,22.7,0000.0,0004.15,0003.01,0002.49
2022-05-31 22:53:00,,0829.2,5.00,0.00,27.8,26.8,00.0,36.7,29.7,22.4,0000.0,0004.05,0002.97,0002.45
2022-05-31 22:54:00,,0829.2,5.02,0.00,27.8,26.8,00.0,36.7,29.7,22.1,0000.0,0004.41,0002.91,0002.40
2022-05-31 22:55:00,,0829.2,5.00,0.00,27.8,26.8,00.0,36.7,29.7,22.3,0000.0,0004.78,0002.89,0002.37
2022-05-31 22:56:00,,0829.2,5.00,0.00,27.8,26.8,00.0,36.7,29.7,22.4,0000.0,0004.80,0002.87,0002.34
2022-05-31 22:57:00,,0829.2,4.99,0.00,27.8,26.8,00.0,36.7,29.7,22.5,0000.0,0004.69,0002.85,0002.32
2022-05-31 22:58:00,,0829.2,4.99,0.00,27.8,26.8,00.0,36.7,29.7,22.6,0000.0,0004.60,0002.84,0002.31
2022-05-31 22:59:00,,0829.2,5.00,0.00,27.8,26.8,00.0,36.7,29.7,22.7,0000.0,0004.64,0002.85,0002.31
